Weather in Milagro

Ecuador     2°07′57″S   79°35′48″W
temp.,
°C
wind,
m/s
gust,
m/s
humid.,
%
clouds,
%
prec.,
mm/h
press.,
hPa
HPBL,
m
6 march, sat
sat601:00+23nnw019663 0.1 101423
04:00+23ene119756 0.9 101225
07:00+23e019574 1.3 101352
10:00+30wnw117144 0.2 1014751
13:00+30wnw116660 0.6 1010921
16:00+30sw127421 3.6 1008656
19:00+25wsw269260 12.1 1011145
22:00+24sw1295100 4.8 101477
7 march, sun
sun701:00+24sse019599 6.8 101434
04:00+23sse1298100 2.9 1012101
07:00+23ese129899 4.4 101490
10:00+26sse018495 0.3 1015463
13:00+29ssw117292 1.4 1013815
16:00+26se2384100 1.7 1011299
19:00+23sse3597100 4.8 1013186
22:00+23w019893 1.0 101631
8 march, mon
mon801:00+23ese119894 2.0 101583
04:00+23ene1198100 0.9 101486
07:00+23ene1197100 0.9 101583
10:00+29nnw007476 0.0 1016597
13:00+29nw228168 3.5 1013699
16:00+28wsw118280 8.3 1011382
19:00+24s239789 17.1 1013104
22:00+23wnw1399100 19.3 1015286
9 march, tue
tue901:00+22e12100100 62.8 1015135
04:00+22se1299100 6.6 1013144
07:00+22ese1198100 9.4 101563
10:00+23wsw1296100 0.2 1016151
13:00+25wsw1287100 0.6 1014353
16:00+26ssw138785 2.1 1011376
19:00+23ssw129685 4.1 101333
22:00+23wsw0197100 0.1 101525
10 march, wed
wed1001:00+23sse1196100 0.4 101423
04:00+23ssw1197100 0.1 101325
07:00+23s1197100 0.1 101430
10:00+25ssw0190100 0.0 1015229
13:00+26wsw1184100 0.0 1013244
16:00+28w237384 0.6 1011627
19:00+24se119284 3.3 101325
22:00+23s119595 1.0 101525